Sunlight Mountain, CO

2:31 PM MDT on August 18, 2017 (GMT -0600)
Sunlight Mountain

Weather History for K5SM - February, 2014

Change the Weather History Date:

Wednesday, February 19, 2014

  Actual Average (KRIL) Record (KRIL)
Temperature  
Mean Temperature 22 °F -  
Max Temperature 35 °F 46 °F 65 °F (1935)
Min Temperature 10 °F 19 °F -19 °F (1942)
Degree Days  
Heating Degree Days 42    
Moisture  
Dew Point 16 °F    
Average Humidity 68    
Maximum Humidity 100    
Minimum Humidity 44    
Precipitation  
Precipitation 0.00 in - - ()
Sea Level Pressure  
Sea Level Pressure 29.83 in    
Wind  
Wind Speed 2 mph (WSW)    
Max Wind Speed 15 mph    
Max Gust Speed 30 mph    
Visibility 8 miles    
Events Snow    
Averages and records for this station are not official NWS values.
T = Trace of Precipitation, MM = Missing Value Source: NWS Daily Summary

Daily Weather History Graph

Daily Weather History Graph

Search for Another Location

Airport or City:

Trip Planner

Search our weather history database for the weather conditions in past years. The results will help you decide how hot, cold, wet, or windy it might be!

Date:

Astronomy

Feb. 19, 2014 Rise Set
Actual Time 6:56 AM MST 5:50 PM MST
Civil Twilight 6:28 AM MST 6:18 PM MST
Nautical Twilight 5:57 AM MST 6:49 PM MST
Astronomical Twilight 5:26 AM MST 7:20 PM MST
Moon 10:45 PM MST (2/19) 9:05 AM MST (2/19)
Length of Visible Light 11h 49m
Length of Day
10h 54m
Waning Gibbous, 79% of the Moon is Illuminated
Feb 19
Waning Gibbous
Feb 22
Last Quarter
Mar 1
New
Mar 8
First Quarter
Mar 16
Full

Hourly Weather History & Observations

Time (MST) Temp. Windchill Dew Point Humidity Pressure Visibility Wind Dir Wind Speed Gust Speed Precip Events Conditions
12:04 AM 28.4 °F - 14.0 °F 55% 30.09 in 10.0 mi Calm Calm - N/A   Overcast
12:23 AM 28.4 °F - 12.2 °F 51% 30.08 in 10.0 mi Calm Calm - N/A   Overcast
12:44 AM 28.4 °F - 14.0 °F 55% 30.07 in 10.0 mi Calm Calm - N/A   Overcast
1:04 AM 26.6 °F - 15.8 °F 64% 30.06 in 10.0 mi Calm Calm - N/A   Mostly Cloudy
1:24 AM 26.6 °F - 14.0 °F 59% 30.04 in 10.0 mi Calm Calm - N/A   Mostly Cloudy
1:44 AM 26.6 °F - 15.8 °F 64% 30.03 in 10.0 mi Calm Calm - N/A   Scattered Clouds
2:04 AM 28.4 °F - 14.0 °F 55% 30.02 in 10.0 mi Calm Calm - N/A   Scattered Clouds
2:23 AM 28.4 °F - 14.0 °F 55% 30.02 in 10.0 mi Calm Calm - N/A   Mostly Cloudy
2:44 AM 28.4 °F - 12.2 °F 51% 30.02 in 10.0 mi Calm Calm - N/A   Mostly Cloudy
3:04 AM 26.6 °F - 12.2 °F 55% 30.00 in 10.0 mi Calm Calm - N/A   Overcast
3:24 AM 26.6 °F - 14.0 °F 59% 29.99 in 10.0 mi Calm Calm - N/A   Overcast
3:44 AM 26.6 °F - 12.2 °F 55% 29.98 in 10.0 mi Calm Calm - N/A   Overcast
4:04 AM 26.6 °F - 14.0 °F 59% 29.97 in 10.0 mi Calm Calm - N/A   Overcast
4:24 AM 26.6 °F - 15.8 °F 64% 29.96 in 10.0 mi Calm Calm - N/A   Overcast
4:44 AM 26.6 °F - 15.8 °F 64% 29.96 in 10.0 mi Calm Calm - N/A   Overcast
5:04 AM 26.6 °F - 14.0 °F 59% 29.95 in 10.0 mi Calm Calm - N/A   Overcast
5:24 AM 26.6 °F - 14.0 °F 59% 29.94 in 10.0 mi Calm Calm - N/A   Overcast
5:44 AM 26.6 °F - 14.0 °F 59% 29.93 in 10.0 mi Calm Calm - N/A   Overcast
6:03 AM 26.6 °F - 12.2 °F 55% 29.93 in 10.0 mi Calm Calm - N/A   Scattered Clouds
6:23 AM 26.6 °F - 12.2 °F 55% 29.92 in 10.0 mi Calm Calm - N/A   Mostly Cloudy
6:44 AM 26.6 °F 22.6 °F 14.0 °F 59% 29.92 in 10.0 mi SW 3.5 mph - N/A   Overcast
7:04 AM 26.6 °F - 12.2 °F 55% 29.91 in 10.0 mi Calm Calm - N/A   Overcast
7:24 AM 26.6 °F 22.6 °F 12.2 °F 55% 29.91 in 10.0 mi SSW 3.5 mph - N/A   Overcast
7:44 AM 26.6 °F - 14.0 °F 59% 29.91 in 10.0 mi Calm Calm - N/A   Overcast
8:03 AM 28.4 °F - 14.0 °F 55% 29.90 in 10.0 mi Calm Calm - N/A   Overcast
8:24 AM 28.4 °F - 14.0 °F 55% 29.89 in 10.0 mi Calm Calm - N/A   Overcast
8:44 AM 28.4 °F - 15.8 °F 59% 29.89 in 10.0 mi Calm Calm - N/A   Overcast
9:04 AM 30.2 °F - 15.8 °F 55% 29.89 in 10.0 mi Calm Calm - N/A   Overcast
9:24 AM 30.2 °F - 14.0 °F 51% 29.89 in 10.0 mi Calm Calm - N/A   Overcast
9:44 AM 30.2 °F - 14.0 °F 51% 29.88 in 10.0 mi Calm Calm - N/A   Overcast
10:04 AM 32.0 °F - 14.0 °F 48% 29.88 in 10.0 mi Calm Calm - N/A   Overcast
10:24 AM 32.0 °F - 14.0 °F 48% 29.88 in 10.0 mi Calm Calm - N/A   Overcast
10:44 AM 32.0 °F 27.5 °F 14.0 °F 48% 29.86 in 10.0 mi SW 4.6 mph - N/A   Overcast
11:03 AM 32.0 °F - 14.0 °F 48% 29.86 in 10.0 mi Calm Calm - N/A   Overcast
11:24 AM 32.0 °F - 12.2 °F 44% 29.84 in 10.0 mi Calm Calm - N/A   Overcast
11:44 AM 32.0 °F - 15.8 °F 51% 29.83 in 10.0 mi Calm Calm - N/A   Overcast
12:03 PM 32.0 °F - 15.8 °F 51% 29.81 in 10.0 mi Calm Calm - N/A   Overcast
12:24 PM 32.0 °F 27.5 °F 17.6 °F 55% 29.78 in 10.0 mi SSW 4.6 mph - N/A   Overcast
12:44 PM 32.0 °F 27.5 °F 19.4 °F 60% 29.75 in 10.0 mi South 4.6 mph - N/A   Overcast
1:03 PM 32.0 °F 26.4 °F 19.4 °F 60% 29.74 in 7.0 mi SSW 5.8 mph - N/A   Overcast
1:24 PM 33.8 °F 30.8 °F 21.2 °F 60% 29.73 in 10.0 mi SSW 3.5 mph - N/A   Mostly Cloudy
1:44 PM 35.6 °F 31.7 °F 19.4 °F 52% 29.73 in 10.0 mi WSW 4.6 mph - N/A   Scattered Clouds
2:03 PM 33.8 °F 30.8 °F 19.4 °F 56% 29.71 in 10.0 mi SW 3.5 mph - N/A   Mostly Cloudy
2:24 PM 32.0 °F 28.7 °F 17.6 °F 55% 29.68 in 10.0 mi SW 3.5 mph - N/A   Overcast
2:44 PM 32.0 °F 28.7 °F 17.6 °F 55% 29.67 in 10.0 mi South 3.5 mph - N/A   Overcast
3:04 PM 32.0 °F 27.5 °F 19.4 °F 60% 29.67 in 10.0 mi SW 4.6 mph - N/A   Overcast
3:24 PM 28.4 °F 24.6 °F 26.6 °F 93% 29.66 in 0.2 mi SW 3.5 mph - N/A Snow Heavy Snow
3:44 PM 26.6 °F 21.2 °F 26.6 °F 100% 29.64 in 0.2 mi SSW 4.6 mph - N/A Snow Heavy Snow
4:04 PM 26.6 °F 21.2 °F 24.8 °F 93% 29.64 in 3.0 mi SSW 4.6 mph - N/A   Overcast
4:24 PM 26.6 °F 20.0 °F 24.8 °F 93% 29.62 in 1.0 mi SSW 5.8 mph - N/A Snow Light Snow
4:44 PM 26.6 °F 21.2 °F 24.8 °F 93% 29.60 in 0.2 mi South 4.6 mph - N/A Snow Snow
5:04 PM 26.6 °F 22.6 °F 23.0 °F 86% 29.62 in 0.5 mi South 3.5 mph - N/A Snow Snow
5:24 PM 23.0 °F 11.7 °F 21.2 °F 93% 29.67 in 0.2 mi West 11.5 mph 20.7 mph N/A Snow Heavy Snow
5:44 PM 21.2 °F 11.7 °F 19.4 °F 93% 29.67 in 0.2 mi West 8.1 mph 23.0 mph N/A Snow Heavy Snow
6:03 PM 23.0 °F 18.4 °F 21.2 °F 93% 29.66 in 0.5 mi SW 3.5 mph - N/A Snow Heavy Snow
6:24 PM 21.2 °F 12.6 °F 19.4 °F 93% 29.67 in 0.5 mi WSW 6.9 mph - N/A Snow Heavy Snow
6:44 PM 21.2 °F 16.4 °F 19.4 °F 93% 29.66 in - South 3.5 mph 25.3 mph N/A   Overcast
7:04 PM 21.2 °F 11.7 °F 19.4 °F 93% 29.68 in - WSW 8.1 mph - N/A   Overcast
7:23 PM 19.4 °F 5.5 °F 17.6 °F 93% 29.69 in - West 15.0 mph 29.9 mph N/A   Overcast
7:44 PM 19.4 °F 9.5 °F 17.6 °F 93% 29.71 in - WSW 8.1 mph 21.9 mph N/A   Overcast
8:04 PM 19.4 °F 10.4 °F 17.6 °F 93% 29.72 in - WSW 6.9 mph - N/A   Overcast
8:24 PM 19.4 °F 7.2 °F 17.6 °F 93% 29.73 in - WNW 11.5 mph 20.7 mph N/A   Overcast
8:44 PM 17.6 °F 6.4 °F 14.0 °F 86% 29.75 in - WNW 9.2 mph 18.4 mph N/A   Overcast
9:04 PM 15.8 °F 5.1 °F 14.0 °F 93% 29.75 in - West 8.1 mph 17.3 mph N/A   Overcast
9:24 PM 15.8 °F 10.2 °F 12.2 °F 86% 29.76 in - WNW 3.5 mph - N/A   Overcast
9:44 PM 14.0 °F 5.1 °F 12.2 °F 93% 29.76 in - NW 5.8 mph - N/A   Overcast
10:04 PM 12.2 °F 2.9 °F 10.4 °F 92% 29.77 in - WNW 5.8 mph - N/A   Overcast
10:24 PM 12.2 °F 2.9 °F 8.6 °F 85% 29.77 in - WNW 5.8 mph - N/A   Unknown
10:43 PM 10.4 °F -1.5 °F 6.8 °F 85% 29.78 in - NW 8.1 mph - N/A   Unknown
11:04 PM 10.4 °F 4.0 °F 6.8 °F 85% 29.78 in - WNW 3.5 mph - N/A   Unknown
11:23 PM 10.4 °F -0.4 °F 6.8 °F 85% 29.78 in - West 6.9 mph - N/A   Unknown
11:44 PM 10.4 °F 0.8 °F 6.8 °F 85% 29.79 in - WNW 5.8 mph - N/A   Unknown